Vertical_Velocity
-1 -1 3 0 -3 -2 -2 -1 -4 4 8 7 0 -4 -3 1 2 5 4 0 0 3
1 -1 -0 -0 -1 1 -2 -1 -2 -1 2 1 -0 1 -1 -3 -5 -5 -1 -1 4 1
-1 -1 1 -1 -3 -1 1 -0 -2 4 11 0 6 5 7 3 9 4 0 6 4 -1
0 0 2 2 0 -2 1 1 2 1 3 1 -1 -2 -1 -2 -3 -5 -1 -2 3 2
1 -2 0 1 -0 -1 1 -2 -1 1 3 3 4 5 1 -3 -6 -5 -2 -0 2 -5
1 0 1 1 1 1 1 0 0 -0 -0 -2 -3 -1 -2 1 1 -0 2 3 4 -1
0 -1 2 3 1 0 1 0 2 -0 -1 0 2 2 2 2 3 4 2 0 -0 -2
6 3 2 0 1 2 1 2 4 4 3 2 2 -0 2 3 2 2 1 1 2 2
1 -3 1 2 3 8 9 6 3 2 1 0 -1 4 1 3 1 3 3 -2 -3 -5
1 -1 0 2 4 6 2 2 3 4 7 6 23 -3 1 5 1 1 -2 -2 1 1
-3 -1 -1 0 3 2 3 2 1 3 5 3 3 0 -1 -1 2 1 1 -1 -3 1
7 2 -0 2 2 1 0 1 1 1 2 1 1 -0 -1 1 5 5 12 21 19 -2
10 1 -1 1 0 3 -0 -0 0 -0 2 1 -0 -1 -2 -1 3 5 5 3 6 5
1 -1 -3 -3 -2 1 2 3 1 -0 -4 0 -1 -3 -1 -2 -2 -0 1 3 2 1
Height
1436 1441 1445 1448 1452 1456 1460 1463 1467 1471 1475 1479 1484 1490 1493 1499 1505 1510 1515 1520 1524 1528
1433 1438 1442 1446 1450 1454 1458 1461 1465 1468 1472 1477 1482 1486 1491 1496 1500 1506 1511 1515 1520 1523
1429 1434 1438 1443 1447 1451 1454 1459 1463 1466 1469 1474 1479 1484 1486 1490 1497 1501 1505 1509 1513 1517
1426 1431 1435 1439 1444 1449 1453 1456 1460 1464 1468 1472 1477 1481 1484 1488 1493 1497 1501 1505 1507 1510
1424 1428 1433 1437 1442 1446 1450 1454 1458 1462 1465 1469 1473 1476 1479 1483 1487 1490 1494 1498 1500 1503
1422 1427 1431 1435 1439 1443 1446 1450 1454 1457 1461 1464 1468 1472 1475 1478 1481 1484 1487 1490 1493 1495
1422 1427 1430 1434 1437 1440 1443 1447 1450 1453 1456 1459 1462 1465 1468 1470 1473 1476 1479 1482 1484 1486
1422 1426 1429 1432 1435 1438 1440 1443 1446 1449 1451 1454 1456 1458 1461 1464 1467 1469 1470 1471 1473 1474
1419 1423 1425 1428 1431 1434 1437 1440 1443 1445 1447 1448 1450 1452 1455 1458 1459 1460 1462 1462 1463 1462
1414 1419 1423 1426 1428 1429 1432 1435 1437 1439 1441 1443 1443 1443 1445 1448 1449 1450 1452 1453 1453 1453
1414 1418 1421 1424 1424 1426 1428 1430 1431 1433 1435 1435 1434 1435 1437 1439 1441 1441 1442 1443 1443 1442
1419 1416 1419 1421 1421 1423 1423 1424 1426 1427 1429 1428 1429 1429 1429 1431 1432 1433 1434 1436 1434 1430
1420 1416 1418 1418 1419 1419 1420 1421 1421 1423 1423 1424 1424 1423 1423 1424 1424 1424 1424 1424 1421 1419
1419 1417 1419 1419 1420 1420 1419 1419 1419 1419 1421 1422 1421 1421 1420 1419 1417 1417 1417 1415 1413 1410